QPF
0.01 0.01 0.01 0.01 0.00 0.00 0.00 0.00 0.00 0.00 0.00 0.00 0.00 0.00 0.00 0.00 0.00 0.00 0.00 0.00 0.00 0.00 0.00 0.00 0.00 0.00 0.00 0.00 0.00 0.00 0.00 0.00 0.00 0.00 0.00 0.00 0.00 0.00 0.00 0.00 0.00 0.00 0.00 0.00 0.00 0.00 0.00
0.00 0.01 0.01 0.01 0.01 0.01 0.01 0.00 0.00 0.00 0.00 0.00 0.00 0.00 0.00 0.00 0.00 0.00 0.00 0.00 0.00 0.00 0.00 0.00 0.00 0.00 0.00 0.00 0.00 0.00 0.00 0.00 0.00 0.00 0.00 0.00 0.00 0.00 0.00 0.00 0.00 0.00 0.00 0.00 0.00 0.00 0.00
0.00 0.00 0.00 0.00 0.00 0.00 0.00 0.00 0.00 0.00 0.00 0.00 0.00 0.00 0.00 0.00 0.00 0.00 0.00 0.00 0.00 0.00 0.00 0.00 0.00 0.00 0.00 0.00 0.00 0.00 0.00 0.00 0.00 0.00 0.00 0.00 0.00 0.00 0.00 0.00 0.00 0.00 0.00 0.00 0.00 0.00 0.00
0.00 0.00 0.00 0.00 0.00 0.00 0.00 0.00 0.00 0.00 0.00 0.00 0.00 0.00 0.00 0.00 0.00 0.00 0.00 0.00 0.00 0.00 0.00 0.00 0.00 0.00 0.00 0.00 0.00 0.00 0.00 0.00 0.00 0.00 0.00 0.00 0.00 0.00 0.00 0.00 0.00 0.00 0.00 0.00 0.00 0.00 0.00
0.00 0.00 0.00 0.00 0.00 0.00 0.00 0.00 0.00 0.00 0.00 0.00 0.00 0.00 0.00 0.00 0.00 0.00 0.00 0.00 0.00 0.00 0.00 0.00 0.00 0.00 0.00 0.00 0.00 0.00 0.00 0.00 0.00 0.00 0.00 0.00 0.00 0.00 0.00 0.00 0.00 0.00 0.00 0.00 0.00 0.00 0.00
0.00 0.00 0.00 0.00 0.00 0.00 0.00 0.00 0.00 0.00 0.00 0.00 0.00 0.00 0.00 0.00 0.00 0.00 0.00 0.00 0.00 0.00 0.00 0.00 0.00 0.00 0.00 0.00 0.00 0.00 0.00 0.00 0.00 0.00 0.00 0.00 0.00 0.00 0.00 0.00 0.00 0.00 0.00 0.00 0.00 0.00 0.00
0.00 0.00 0.00 0.00 0.00 0.00 0.00 0.00 0.00 0.00 0.00 0.00 0.00 0.00 0.00 0.00 0.00 0.00 0.00 0.00 0.00 0.00 0.00 0.00 0.00 0.00 0.00 0.00 0.00 0.00 0.00 0.00 0.00 0.00 0.00 0.00 0.00 0.00 0.00 0.00 0.00 0.00 0.00 0.00 0.00 0.00 0.00
0.00 0.00 0.00 0.00 0.00 0.00 0.00 0.00 0.00 0.00 0.00 0.00 0.00 0.00 0.00 0.00 0.00 0.00 0.00 0.00 0.00 0.00 0.00 0.00 0.00 0.00 0.00 0.00 0.00 0.00 0.00 0.00 0.00 0.00 0.00 0.00 0.00 0.00 0.00 0.00 0.00 0.00 0.00 0.00 0.00 0.00 0.00
0.00 0.00 0.00 0.00 0.00 0.00 0.00 0.00 0.00 0.00 0.00 0.00 0.00 0.00 0.00 0.00 0.00 0.00 0.00 0.00 0.00 0.00 0.00 0.00 0.00 0.00 0.00 0.00 0.00 0.00 0.00 0.00 0.00 0.00 0.00 0.00 0.00 0.00 0.00 0.00 0.00 0.00 0.00 0.00 0.00 0.00 0.00
0.00 0.00 0.00 0.00 0.00 0.00 0.00 0.00 0.00 0.00 0.00 0.00 0.00 0.00 0.00 0.00 0.00 0.00 0.00 0.00 0.00 0.00 0.00 0.00 0.00 0.00 0.00 0.00 0.00 0.00 0.00 0.00 0.00 0.00 0.00 0.00 0.00 0.00 0.00 0.00 0.00 0.00 0.00 0.00 0.00 0.00 0.00
0.00 0.00 0.00 0.00 0.00 0.00 0.00 0.00 0.00 0.00 0.00 0.00 0.00 0.00 0.00 0.00 0.00 0.00 0.00 0.00 0.00 0.00 0.00 0.00 0.00 0.00 0.00 0.00 0.00 0.00 0.00 0.00 0.00 0.00 0.00 0.00 0.00 0.00 0.00 0.00 0.00 0.00 0.00 0.00 0.00 0.00 0.00
0.00 0.00 0.00 0.00 0.00 0.00 0.00 0.00 0.00 0.00 0.00 0.00 0.00 0.00 0.00 0.00 0.00 0.00 0.00 0.00 0.00 0.00 0.00 0.00 0.00 0.00 0.00 0.00 0.00 0.00 0.00 0.00 0.00 0.00 0.00 0.00 0.00 0.00 0.00 0.00 0.00 0.00 0.00 0.00 0.00 0.00 0.00
0.00 0.00 0.00 0.00 0.00 0.00 0.00 0.00 0.00 0.00 0.00 0.00 0.00 0.00 0.00 0.00 0.00 0.00 0.00 0.00 0.00 0.00 0.00 0.00 0.00 0.00 0.00 0.00 0.00 0.00 0.00 0.00 0.00 0.00 0.00 0.00 0.00 0.00 0.00 0.00 0.00 0.00 0.00 0.00 0.00 0.00 0.00
0.00 0.00 0.00 0.00 0.00 0.01 0.01 0.00 0.00 0.00 0.00 0.00 0.00 0.00 0.00 0.00 0.00 0.00 0.01 0.01 0.00 0.00 0.00 0.00 0.00 0.00 0.00 0.00 0.00 0.00 0.00 0.00 0.00 0.00 0.00 0.00 0.00 0.00 0.00 0.00 0.00 0.00 0.00 0.00 0.00 0.00 0.00
0.00 0.00 0.00 0.00 0.01 0.02 0.02 0.01 0.01 0.01 0.00 0.00 0.00 0.00 0.00 0.00 0.00 0.01 0.02 0.01 0.00 0.00 0.00 0.00 0.00 0.00 0.00 0.00 0.00 0.00 0.00 0.00 0.00 0.00 0.00 0.00 0.00 0.00 0.00 0.00 0.00 0.00 0.00 0.00 0.00 0.00 0.00
0.00 0.00 0.00 0.00 0.01 0.02 0.02 0.01 0.01 0.01 0.00 0.00 0.00 0.00 0.00 0.00 0.02 0.04 0.03 0.01 0.00 0.00 0.00 0.00 0.00 0.00 0.00 0.00 0.00 0.00 0.00 0.00 0.00 0.00 0.00 0.00 0.00 0.00 0.00 0.00 0.00 0.00 0.00 0.00 0.00 0.00 0.00
0.00 0.00 0.00 0.01 0.01 0.01 0.01 0.01 0.01 0.01 0.01 0.00 0.00 0.00 0.00 0.00 0.00 0.04 0.02 0.00 0.00 0.00 0.00 0.00 0.00 0.00 0.00 0.00 0.00 0.00 0.00 0.00 0.00 0.00 0.00 0.00 0.00 0.00 0.00 0.00 0.00 0.00 0.00 0.00 0.00 0.00 0.00
0.01 0.01 0.01 0.01 0.01 0.00 0.00 0.00 0.01 0.02 0.01 0.01 0.00 0.00 0.00 0.00 0.00 0.00 0.01 0.01 0.01 0.01 0.00 0.00 0.00 0.00 0.00 0.00 0.00 0.00 0.00 0.00 0.00 0.00 0.00 0.00 0.00 0.00 0.00 0.00 0.00 0.00 0.00 0.00 0.00 0.00 0.00
0.01 0.02 0.02 0.02 0.03 0.02 0.01 0.02 0.02 0.02 0.04 0.05 0.01 0.00 0.00 0.01 0.03 0.02 0.02 0.00 0.00 0.01 0.00 0.00 0.00 0.00 0.00 0.00 0.00 0.00 0.00 0.00 0.00 0.00 0.00 0.00 0.00 0.00 0.00 0.00 0.00 0.00 0.00 0.00 0.00 0.00 0.00
0.01 0.02 0.02 0.03 0.03 0.03 0.03 0.03 0.03 0.02 0.05 0.05 0.02 0.00 0.00 0.01 0.03 0.01 0.01 0.00 0.00 0.00 0.00 0.00 0.00 0.00 0.00 0.00 0.00 0.00 0.00 0.00 0.00 0.00 0.00 0.00 0.00 0.00 0.00 0.00 0.00 0.00 0.00 0.00 0.00 0.00 0.00
0.01 0.02 0.03 0.03 0.03 0.03 0.04 0.04 0.04 0.04 0.06 0.05 0.02 0.01 0.00 0.00 0.00 0.00 0.01 0.02 0.00 0.01 0.00 0.00 0.00 0.01 0.00 0.00 0.00 0.00 0.00 0.00 0.00 0.00 0.00 0.00 0.00 0.00 0.00 0.00 0.00 0.00 0.00 0.00 0.00 0.00 0.00
0.02 0.02 0.01 0.01 0.02 0.03 0.05 0.05 0.05 0.05 0.07 0.03 0.02 0.01 0.01 0.00 0.00 0.00 0.01 0.01 0.01 0.01 0.00 0.01 0.00 0.01 0.01 0.01 0.00 0.00 0.00 0.00 0.00 0.00 0.00 0.00 0.00 0.00 0.00 0.00 0.00 0.00 0.00 0.00 0.00 0.00 0.00
0.02 0.02 0.02 0.03 0.03 0.04 0.05 0.06 0.06 0.06 0.07 0.02 0.01 0.01 0.02 0.00 0.00 0.00 0.00 0.02 0.01 0.00 0.00 0.00 0.00 0.01 0.00 0.00 0.01 0.00 0.00 0.00 0.00 0.00 0.00 0.00 0.00 0.00 0.00 0.00 0.00 0.00 0.00 0.00 0.00 0.00 0.00
0.02 0.02 0.02 0.02 0.03 0.04 0.05 0.05 0.05 0.06 0.06 0.03 0.00 0.01 0.02 0.00 0.00 0.00 0.00 0.00 0.00 0.00 0.00 0.00 0.00 0.00 0.00 0.00 0.00 0.00 0.00 0.00 0.00 0.00 0.00 0.00 0.00 0.00 0.00 0.00 0.00 0.00 0.00 0.00 0.00 0.00 0.00
0.02 0.01 0.01 0.02 0.03 0.03 0.03 0.04 0.05 0.05 0.05 0.04 0.02 0.01 0.01 0.01 0.00 0.00 0.00 0.00 0.00 0.00 0.00 0.00 0.00 0.00 0.01 0.02 0.02 0.01 0.01 0.00 0.00 0.00 0.00 0.00 0.00 0.00 0.00 0.00 0.00 0.00 0.00 0.00 0.00 0.00 0.00
0.01 0.01 0.01 0.02 0.03 0.03 0.04 0.06 0.06 0.05 0.06 0.05 0.03 0.03 0.01 0.01 0.00 0.00 0.00 0.00 0.00 0.00 0.00 0.00 0.00 0.00 0.02 0.03 0.03 0.03 0.02 0.00 0.00 0.00 0.00 0.00 0.00 0.00 0.00 0.00 0.00 0.00 0.00 0.00 0.00 0.00 0.00
0.00 0.01 0.02 0.02 0.03 0.05 0.06 0.05 0.04 0.05 0.07 0.06 0.02 0.02 0.01 0.00 0.00 0.00 0.00 0.00 0.00 0.00 0.00 0.00 0.00 0.01 0.01 0.02 0.02 0.01 0.01 0.00 0.00 0.00 0.00 0.00 0.00 0.00 0.00 0.00 0.00 0.00 0.00 0.00 0.00 0.00 0.00
0.00 0.01 0.02 0.02 0.03 0.05 0.03 0.02 0.04 0.06 0.08 0.09 0.03 0.02 0.01 0.01 0.00 0.00 0.00 0.00 0.00 0.00 0.00 0.00 0.01 0.00 0.01 0.02 0.02 0.01 0.01 0.00 0.00 0.00 0.00 0.00 0.00 0.00 0.00 0.00 0.00 0.00 0.00 0.00 0.00 0.00 0.00
0.00 0.00 0.01 0.02 0.03 0.02 0.00 0.01 0.03 0.05 0.07 0.09 0.03 0.01 0.01 0.01 0.00 0.00 0.00 0.00 0.00 0.00 0.00 0.01 0.01 0.00 0.00 0.01 0.01 0.01 0.01 0.00 0.01 0.01 0.00 0.00 0.00 0.00 0.00 0.00 0.00 0.00 0.00 0.00 0.00 0.00 0.00
MSLP
1023.76 1023.36 1022.94 1022.47 1022.02 1021.52 1021.10 1020.72 1020.30 1019.75 1019.31 1018.93 1018.43 1017.99 1017.46 1016.82 1016.24 1015.59 1015.02 1014.59 1014.24 1014.04 1013.88 1013.65 1013.44 1013.42 1013.56 1012.34 1009.50 1009.18 1009.35 1009.63 1009.86 1010.04 1009.57 1009.06 1008.58 1008.32 1007.79 1007.48 1007.83 1008.02 1007.38 1007.90 1008.04 1008.55 1008.65
1024.34 1023.86 1023.46 1023.06 1022.67 1022.17 1021.73 1021.29 1020.73 1020.10 1019.48 1018.85 1018.33 1017.88 1017.38 1016.96 1016.43 1015.74 1015.02 1014.31 1013.86 1013.70 1013.56 1013.41 1013.28 1013.21 1012.61 1010.93 1009.09 1009.26 1009.55 1009.68 1009.52 1009.72 1009.24 1008.86 1008.10 1007.85 1007.63 1007.55 1007.93 1007.45 1007.76 1008.07 1008.44 1008.63 1008.78
1024.95 1024.43 1024.02 1023.54 1023.06 1022.59 1022.08 1021.57 1021.07 1020.46 1019.80 1019.20 1018.54 1018.01 1017.44 1016.69 1016.10 1015.69 1014.97 1014.17 1013.59 1013.02 1013.20 1013.16 1012.94 1012.62 1011.44 1009.04 1008.74 1009.16 1009.69 1009.52 1009.29 1009.22 1009.03 1008.99 1008.76 1008.63 1007.94 1008.04 1008.24 1008.21 1008.22 1008.13 1008.08 1008.30 1008.39
1025.37 1024.97 1024.55 1024.12 1023.63 1023.02 1022.40 1021.87 1021.30 1020.64 1020.07 1019.61 1018.99 1018.31 1017.62 1016.81 1016.06 1015.22 1014.49 1013.83 1013.11 1012.82 1012.39 1012.76 1012.85 1012.10 1009.67 1008.15 1008.08 1008.91 1009.06 1009.39 1009.45 1009.21 1009.04 1008.89 1009.12 1008.62 1008.29 1008.31 1008.14 1007.90 1007.60 1006.68 1005.61 1007.52 1008.20
1025.92 1025.48 1024.90 1024.39 1024.02 1023.63 1022.94 1022.19 1021.51 1020.82 1020.12 1019.66 1019.07 1018.44 1017.67 1016.84 1016.02 1015.29 1014.17 1013.00 1012.59 1012.32 1012.22 1012.05 1012.34 1011.60 1008.75 1008.62 1008.22 1007.83 1008.32 1008.57 1009.19 1009.35 1009.26 1009.16 1009.01 1008.35 1008.55 1007.79 1007.10 1006.61 1005.39 1005.22 1005.80 1006.66 1007.28
1026.34 1025.69 1025.20 1024.76 1024.23 1023.54 1022.83 1022.21 1021.72 1021.22 1020.50 1019.77 1019.13 1018.48 1017.68 1016.73 1015.75 1014.87 1013.81 1012.48 1011.89 1012.38 1012.21 1011.70 1011.00 1011.07 1008.05 1007.16 1007.11 1007.26 1007.79 1008.16 1008.62 1009.07 1009.22 1008.89 1008.40 1007.76 1007.33 1006.68 1004.94 1004.71 1004.75 1004.61 1004.69 1005.95 1006.69
1026.61 1026.22 1025.65 1024.97 1024.19 1023.71 1023.21 1022.50 1021.85 1021.23 1020.55 1019.86 1019.25 1018.52 1017.85 1016.81 1015.60 1014.50 1013.49 1012.16 1011.61 1011.80 1011.28 1008.60 1007.30 1006.22 1006.15 1007.00 1007.41 1007.40 1007.38 1007.80 1008.08 1008.38 1007.87 1007.91 1007.33 1005.48 1005.00 1005.06 1004.54 1004.42 1004.04 1003.87 1003.96 1005.63 1006.49
1026.90 1026.39 1025.77 1025.14 1024.56 1024.01 1023.41 1022.67 1022.00 1021.40 1020.71 1020.07 1019.44 1018.57 1017.69 1016.75 1015.73 1014.47 1013.73 1012.82 1013.01 1013.04 1010.40 1008.12 1007.12 1006.30 1005.72 1006.33 1006.50 1006.78 1007.40 1007.04 1007.05 1006.75 1006.93 1007.05 1005.44 1004.91 1004.76 1004.62 1004.67 1004.40 1004.44 1004.01 1004.31 1005.75 1006.53
1027.02 1026.40 1025.78 1025.14 1024.54 1023.84 1023.33 1022.81 1022.14 1021.46 1020.76 1020.22 1019.54 1018.85 1017.81 1016.90 1015.18 1013.82 1013.49 1013.49 1013.23 1012.86 1010.69 1006.29 1005.30 1004.96 1004.93 1005.60 1004.66 1005.19 1006.33 1005.95 1005.60 1005.58 1005.39 1005.06 1004.09 1004.49 1004.65 1004.73 1004.52 1004.34 1004.22 1004.41 1004.81 1005.90 1006.18
1026.75 1026.25 1025.80 1025.19 1024.65 1023.97 1023.24 1022.74 1021.98 1021.33 1020.73 1020.25 1019.58 1018.85 1017.87 1017.07 1014.62 1013.96 1012.87 1013.14 1013.10 1012.75 1010.36 1005.29 1004.44 1003.00 1003.76 1004.53 1003.55 1003.38 1004.66 1004.67 1004.98 1004.39 1004.65 1004.55 1004.20 1004.62 1004.42 1004.50 1004.87 1004.29 1004.42 1004.92 1005.46 1006.24 1005.38
1026.83 1026.24 1025.66 1024.98 1024.44 1023.82 1023.18 1022.45 1021.79 1021.24 1020.56 1019.98 1019.31 1018.66 1018.01 1017.69 1016.11 1014.61 1013.04 1012.67 1012.53 1012.43 1009.28 1003.36 1003.36 1003.58 1002.96 1003.23 1002.07 1002.95 1003.92 1004.37 1003.74 1003.88 1004.02 1003.18 1003.80 1004.37 1004.45 1004.23 1004.84 1005.02 1005.23 1005.44 1005.85 1005.96 1005.56
1026.84 1026.19 1025.68 1025.08 1024.45 1023.74 1023.10 1022.39 1021.70 1021.09 1020.42 1019.66 1018.92 1018.26 1017.65 1016.32 1015.11 1014.43 1013.68 1013.12 1012.08 1011.40 1006.97 1003.41 1003.48 1003.61 1003.60 1002.91 1002.62 1003.45 1003.70 1004.35 1003.86 1003.66 1003.80 1003.72 1004.82 1004.52 1004.43 1005.31 1005.22 1006.13 1006.19 1006.38 1006.39 1006.04 1004.86
1026.80 1026.14 1025.47 1024.77 1024.09 1023.59 1023.01 1022.32 1021.82 1021.22 1020.52 1019.67 1018.74 1017.84 1017.14 1016.18 1014.38 1013.68 1013.51 1013.69 1011.27 1008.01 1005.59 1002.58 1002.74 1002.85 1003.01 1002.71 1002.72 1002.44 1002.25 1002.86 1002.64 1003.36 1002.83 1003.65 1004.33 1004.86 1005.18 1005.75 1006.32 1006.03 1006.03 1005.88 1005.91 1005.48 1002.93
1026.48 1025.86 1025.38 1024.76 1024.13 1023.62 1023.04 1022.37 1021.69 1020.97 1020.19 1019.34 1018.17 1017.12 1015.61 1014.62 1013.82 1013.71 1013.36 1013.13 1007.89 1004.87 1004.05 1002.47 1002.45 1002.96 1002.52 1001.93 1001.92 1002.19 1001.85 1001.47 1001.78 1001.37 1001.41 1002.10 1002.89 1003.76 1004.25 1003.87 1004.55 1005.05 1004.43 1003.90 1003.32 1002.81 1001.93
1026.24 1025.61 1025.03 1024.45 1023.95 1023.23 1022.70 1022.04 1021.33 1020.65 1020.06 1019.06 1017.73 1015.86 1014.51 1013.38 1012.90 1012.93 1013.31 1012.01 1007.86 1004.57 1002.41 1001.95 1002.25 1001.94 1001.88 1001.30 1001.31 1001.59 1000.88 999.96 999.59 1000.01 1000.34 1000.63 1001.52 1002.38 1003.69 1003.76 1003.84 1004.66 1003.91 1003.45 1002.96 1002.66 1002.26
1026.33 1025.68 1024.76 1024.00 1023.43 1022.88 1022.28 1021.71 1021.07 1020.34 1019.76 1019.11 1017.68 1015.25 1013.35 1012.74 1012.79 1012.65 1012.39 1010.54 1007.99 1005.70 1003.49 1002.08 1000.92 1000.29 1000.56 1000.86 1001.27 1000.90 1000.06 998.64 998.61 998.80 999.50 999.16 1000.69 1002.89 1004.10 1004.74 1004.50 1003.94 1002.94 1003.67 1003.16 1001.96 1000.52
1025.68 1025.03 1024.33 1023.67 1023.01 1022.46 1021.89 1021.42 1020.62 1020.12 1019.59 1019.19 1017.63 1015.43 1012.90 1012.70 1012.71 1012.63 1011.49 1010.05 1008.04 1006.61 1005.04 1003.40 1002.23 1000.66 1000.27 1000.81 1000.64 1000.27 998.93 998.12 998.08 997.77 998.87 999.21 999.82 1003.09 1004.07 1003.25 1002.52 1003.77 1002.62 1002.30 1001.52 1000.58 999.44
1025.38 1024.58 1023.85 1023.23 1022.60 1021.96 1021.31 1020.85 1020.26 1019.78 1019.34 1018.81 1018.05 1015.89 1013.41 1013.44 1012.81 1011.78 1011.76 1011.42 1010.04 1008.43 1006.54 1004.00 1003.31 1002.42 1000.93 1001.12 1001.35 1000.67 999.71 998.51 997.98 998.12 998.35 998.48 999.08 1000.17 1001.62 1002.14 1002.03 1001.59 1001.26 1001.17 1000.42 999.87 999.54
1024.92 1024.11 1023.36 1022.56 1021.91 1021.35 1020.93 1020.38 1019.94 1019.55 1019.28 1019.30 1018.02 1015.70 1013.73 1013.39 1013.12 1012.28 1012.19 1011.91 1011.24 1009.86 1008.69 1005.65 1004.85 1003.42 1002.54 1002.37 1002.25 1001.43 1000.77 1000.49 1000.13 999.58 998.49 998.73 999.02 999.38 1000.96 1002.33 1002.50 1001.49 1000.67 1000.19 1000.02 999.45 998.48
1024.43 1023.71 1022.81 1022.00 1021.12 1020.54 1020.03 1019.55 1019.06 1018.91 1018.80 1019.13 1018.43 1015.91 1013.71 1013.04 1013.23 1013.72 1012.96 1011.69 1010.94 1010.20 1009.45 1008.44 1006.59 1005.16 1004.60 1003.75 1003.02 1002.18 1001.60 1001.60 1001.09 1001.65 1001.13 999.74 998.22 997.86 997.62 998.20 998.83 1000.16 999.96 999.76 999.75 998.90 998.33
1023.90 1022.86 1021.98 1021.18 1020.58 1019.67 1018.92 1018.55 1018.34 1018.00 1018.00 1018.49 1018.03 1016.00 1014.88 1013.78 1013.22 1013.66 1013.41 1012.71 1011.49 1010.75 1010.17 1009.43 1008.01 1007.87 1006.78 1005.12 1003.97 1003.30 1002.79 1002.30 1001.30 1002.02 1002.24 1001.76 999.31 998.22 997.89 998.02 998.76 998.75 998.81 999.08 999.08 998.23 997.78
1023.20 1022.16 1021.34 1020.51 1019.53 1018.70 1018.14 1017.68 1017.17 1016.99 1017.08 1017.16 1016.95 1016.02 1015.38 1014.47 1014.02 1013.37 1012.92 1012.21 1011.59 1011.12 1010.52 1009.81 1009.46 1009.14 1008.50 1007.13 1006.36 1005.28 1003.71 1002.95 1002.59 1003.29 1003.51 1002.71 1001.17 999.63 998.76 998.70 998.88 998.77 998.59 998.42 998.43 998.41 998.06
1022.50 1021.62 1020.56 1019.68 1018.84 1018.01 1017.10 1016.50 1016.20 1015.92 1015.91 1015.94 1015.83 1015.62 1015.85 1014.48 1013.70 1013.19 1012.13 1011.36 1011.16 1010.77 1009.91 1010.03 1009.31 1008.53 1007.89 1007.73 1006.92 1006.16 1005.25 1004.37 1003.32 1003.13 1003.67 1003.59 1002.58 1001.13 999.14 998.71 999.04 998.38 997.56 997.68 997.77 997.61 997.54
1021.74 1020.82 1019.93 1018.89 1017.84 1017.01 1016.20 1015.52 1015.05 1014.63 1014.54 1014.46 1014.57 1015.13 1015.30 1014.19 1013.30 1012.34 1011.87 1011.72 1011.24 1010.82 1010.00 1009.77 1009.18 1008.24 1007.30 1006.38 1006.01 1005.02 1003.83 1003.47 1003.05 1003.28 1003.60 1003.70 1003.19 1002.19 1000.19 999.51 998.27 996.15 996.38 996.18 996.33 996.45 996.78
1021.43 1020.50 1019.51 1018.36 1016.98 1016.08 1015.40 1014.67 1013.92 1013.39 1013.09 1013.43 1013.93 1014.35 1014.63 1013.73 1012.93 1011.73 1011.42 1010.86 1010.71 1010.27 1009.84 1008.98 1008.55 1007.77 1006.92 1006.41 1006.08 1004.56 1002.83 1002.70 1002.13 1002.43 1002.96 1002.81 1002.69 1002.13 1000.77 998.79 996.89 996.25 996.33 996.38 996.58 995.85 996.03
1021.18 1020.19 1019.09 1018.30 1017.06 1015.66 1014.95 1014.14 1013.28 1012.57 1011.90 1011.93 1012.29 1013.32 1013.77 1013.52 1011.88 1011.60 1011.31 1010.74 1010.38 1009.66 1009.14 1008.84 1007.89 1007.56 1007.18 1006.66 1005.50 1004.50 1002.50 1001.31 1001.71 1001.93 1002.24 1002.50 1002.26 1002.30 1000.98 998.74 996.42 994.54 994.98 995.43 996.71 995.59 995.62
1020.68 1019.74 1018.86 1017.86 1017.04 1015.84 1014.88 1013.98 1013.05 1012.33 1011.27 1011.82 1011.82 1012.57 1012.77 1012.78 1011.18 1011.26 1010.52 1010.27 1010.20 1009.90 1009.29 1008.80 1008.00 1007.54 1007.08 1006.37 1005.74 1004.69 1003.49 1002.13 1001.16 1000.72 1001.51 1001.70 1001.74 1000.99 1000.08 998.60 996.24 994.59 995.43 996.04 996.49 994.28 994.76
1020.33 1019.44 1018.57 1017.68 1016.78 1015.82 1014.97 1013.86 1012.96 1012.22 1011.70 1011.60 1011.30 1011.68 1012.21 1012.05 1010.36 1010.42 1009.99 1010.06 1009.91 1009.74 1009.46 1009.02 1008.79 1006.97 1006.69 1006.18 1005.41 1004.70 1003.34 1003.23 1002.67 1000.92 1000.44 1000.08 1000.60 1000.07 999.67 998.04 996.48 995.09 995.96 995.83 995.34 995.54 996.08
1020.06 1018.96 1018.19 1017.20 1016.55 1015.65 1014.63 1013.82 1013.02 1012.29 1011.61 1011.07 1011.06 1011.20 1011.73 1011.80 1010.26 1009.65 1009.30 1008.96 1009.04 1008.96 1009.31 1009.18 1009.08 1008.41 1007.93 1007.32 1006.74 1006.32 1005.15 1004.36 1003.09 1002.08 1001.48 1000.49 999.99 999.41 998.36 996.37 995.01 995.09 994.78 995.10 995.98 996.85 997.29
Thickness
5634 5634 5636 5638 5639 5641 5641 5642 5643 5646 5648 5650 5653 5655 5658 5662 5665 5669 5672 5675 5676 5676 5677 5678 5679 5677 5677 5678 5697 5713 5711 5710 5706 5703 5702 5702 5701 5699 5695 5703 5701 5691 5706 5702 5704 5698 5697
5626 5627 5628 5628 5628 5630 5630 5631 5634 5638 5640 5643 5646 5649 5653 5655 5659 5663 5668 5672 5674 5674 5674 5675 5675 5674 5676 5674 5706 5706 5705 5704 5704 5701 5701 5702 5704 5707 5702 5701 5692 5704 5699 5696 5694 5693 5693
5618 5619 5619 5619 5620 5621 5623 5624 5626 5628 5630 5633 5637 5640 5643 5648 5653 5656 5661 5667 5671 5674 5670 5670 5671 5674 5675 5690 5704 5700 5697 5698 5702 5699 5695 5697 5698 5689 5697 5686 5692 5688 5680 5686 5690 5691 5691
5611 5611 5612 5612 5612 5615 5616 5617 5618 5620 5622 5624 5626 5630 5633 5639 5644 5650 5656 5661 5665 5668 5670 5665 5663 5669 5680 5704 5702 5697 5695 5691 5694 5696 5695 5697 5692 5690 5688 5689 5684 5680 5683 5686 5715 5692 5688
5605 5605 5606 5605 5604 5603 5605 5607 5611 5613 5616 5617 5618 5620 5624 5629 5633 5639 5648 5657 5659 5661 5661 5662 5658 5660 5678 5695 5691 5696 5694 5686 5684 5685 5687 5688 5686 5685 5679 5680 5681 5687 5691 5696 5694 5694 5689
5594 5596 5594 5594 5594 5595 5597 5599 5599 5599 5602 5605 5608 5611 5615 5620 5626 5631 5637 5648 5651 5648 5649 5652 5659 5648 5681 5688 5693 5690 5689 5685 5676 5673 5670 5674 5677 5675 5679 5679 5679 5687 5684 5694 5696 5690 5683
5582 5581 5580 5582 5584 5584 5583 5586 5587 5587 5590 5593 5594 5596 5599 5607 5614 5621 5628 5635 5641 5636 5641 5664 5670 5682 5682 5682 5681 5678 5680 5674 5671 5665 5663 5669 5665 5677 5693 5692 5697 5692 5694 5696 5706 5686 5673
5569 5567 5568 5568 5569 5568 5568 5569 5571 5571 5573 5574 5576 5580 5585 5591 5597 5605 5609 5611 5610 5608 5625 5654 5660 5667 5678 5673 5667 5671 5670 5664 5662 5660 5666 5657 5662 5690 5695 5692 5683 5684 5677 5686 5696 5675 5661
5560 5559 5558 5557 5556 5556 5555 5552 5551 5552 5554 5555 5559 5561 5567 5573 5583 5593 5591 5588 5588 5588 5603 5652 5662 5659 5667 5666 5669 5668 5662 5666 5663 5658 5664 5661 5683 5685 5679 5674 5672 5675 5674 5677 5675 5662 5661
5554 5552 5549 5548 5545 5544 5542 5537 5536 5534 5534 5534 5537 5543 5548 5553 5569 5570 5575 5572 5570 5569 5576 5631 5644 5658 5659 5659 5657 5676 5668 5665 5655 5659 5661 5655 5675 5666 5669 5665 5666 5662 5680 5671 5662 5645 5650
5542 5539 5536 5534 5529 5526 5521 5519 5514 5508 5505 5504 5507 5511 5514 5514 5535 5541 5547 5549 5550 5550 5541 5640 5633 5645 5652 5650 5665 5658 5665 5651 5653 5655 5655 5660 5660 5653 5654 5665 5664 5655 5658 5656 5650 5642 5643
5530 5527 5522 5518 5513 5508 5501 5495 5491 5485 5482 5480 5481 5481 5481 5488 5500 5503 5508 5513 5525 5521 5530 5612 5609 5614 5618 5636 5643 5637 5643 5640 5649 5644 5644 5651 5639 5649 5654 5644 5652 5639 5637 5635 5633 5634 5615
5516 5513 5508 5503 5497 5489 5481 5471 5459 5453 5449 5447 5446 5444 5444 5446 5468 5471 5479 5481 5495 5501 5571 5595 5597 5602 5604 5612 5621 5630 5633 5628 5631 5614 5624 5637 5630 5633 5634 5626 5625 5633 5631 5621 5612 5605 5630
5503 5498 5491 5483 5474 5463 5450 5440 5432 5423 5415 5412 5413 5416 5425 5426 5433 5443 5448 5453 5486 5536 5552 5582 5583 5577 5582 5605 5609 5612 5615 5620 5627 5635 5634 5619 5619 5626 5632 5642 5627 5625 5637 5624 5620 5626 5650
5489 5484 5475 5466 5452 5440 5423 5411 5403 5396 5386 5384 5392 5406 5415 5419 5422 5422 5416 5413 5468 5529 5570 5570 5572 5565 5573 5591 5597 5597 5608 5621 5635 5636 5624 5624 5624 5630 5626 5631 5635 5617 5613 5644 5629 5628 5612
5471 5461 5456 5444 5431 5415 5400 5388 5378 5372 5366 5364 5372 5394 5408 5409 5410 5410 5402 5415 5459 5501 5544 5550 5553 5574 5571 5581 5573 5584 5599 5627 5629 5639 5640 5641 5620 5601 5598 5601 5605 5612 5632 5610 5607 5601 5615
5459 5448 5437 5423 5408 5392 5379 5369 5362 5356 5352 5348 5358 5373 5397 5397 5399 5399 5409 5419 5456 5477 5501 5512 5527 5553 5558 5561 5564 5573 5600 5617 5626 5632 5630 5628 5621 5578 5581 5594 5614 5598 5607 5614 5626 5627 5623
5444 5435 5423 5406 5389 5375 5366 5357 5350 5344 5339 5339 5340 5353 5378 5377 5385 5402 5404 5398 5411 5428 5452 5494 5501 5519 5542 5545 5543 5561 5576 5603 5614 5613 5609 5621 5613 5599 5592 5595 5608 5615 5613 5616 5613 5616 5618
5433 5422 5405 5390 5375 5365 5354 5348 5341 5335 5328 5323 5327 5353 5366 5367 5365 5383 5384 5389 5393 5406 5414 5456 5468 5500 5520 5523 5523 5541 5558 5555 5573 5582 5598 5603 5593 5592 5571 5573 5576 5586 5609 5622 5625 5627 5609
5418 5404 5390 5375 5366 5357 5350 5343 5338 5331 5324 5316 5316 5331 5362 5366 5363 5351 5359 5387 5393 5407 5403 5405 5438 5473 5482 5496 5515 5526 5537 5543 5548 5544 5552 5575 5598 5599 5600 5615 5610 5586 5598 5609 5609 5603 5609
5406 5395 5379 5365 5350 5351 5347 5338 5332 5330 5325 5314 5314 5330 5339 5346 5355 5348 5354 5362 5372 5381 5395 5389 5408 5412 5426 5464 5487 5494 5515 5527 5541 5535 5532 5537 5567 5590 5602 5601 5590 5596 5600 5599 5594 5610 5604
5394 5381 5366 5356 5351 5343 5337 5332 5332 5329 5325 5317 5316 5321 5326 5339 5340 5345 5348 5359 5366 5365 5383 5385 5379 5381 5395 5424 5439 5456 5498 5513 5518 5511 5512 5521 5543 5566 5563 5580 5575 5572 5586 5595 5594 5595 5596
5384 5368 5358 5349 5338 5331 5328 5328 5327 5328 5326 5318 5321 5322 5309 5330 5336 5338 5350 5358 5356 5364 5380 5381 5385 5392 5395 5402 5417 5429 5449 5469 5493 5505 5502 5508 5524 5536 5553 5570 5553 5551 5577 5587 5588 5594 5599
5375 5360 5349 5340 5333 5324 5318 5321 5324 5328 5329 5326 5323 5317 5309 5319 5332 5340 5342 5341 5344 5351 5360 5369 5381 5386 5398 5415 5417 5433 5456 5471 5486 5483 5489 5486 5492 5515 5535 5542 5530 5586 5584 5594 5590 5595 5595
5363 5351 5342 5333 5326 5317 5312 5315 5322 5327 5330 5327 5323 5317 5309 5313 5328 5341 5339 5344 5344 5351 5356 5366 5372 5385 5400 5403 5407 5427 5462 5466 5480 5486 5485 5500 5496 5503 5520 5538 5564 5570 5571 5576 5574 5583 5594
5355 5345 5338 5325 5320 5316 5312 5313 5319 5325 5330 5326 5327 5316 5309 5307 5330 5332 5327 5336 5332 5342 5352 5355 5372 5380 5384 5392 5406 5421 5471 5488 5479 5467 5480 5486 5493 5491 5506 5524 5537 5591 5582 5578 5563 5559 5588
5350 5342 5332 5324 5318 5315 5310 5311 5315 5321 5329 5325 5328 5319 5312 5308 5332 5325 5326 5327 5331 5332 5335 5345 5357 5365 5376 5383 5398 5420 5441 5462 5487 5486 5470 5471 5474 5485 5501 5514 5543 5583 5559 5560 5547 5588 5579
5347 5339 5332 5325 5320 5317 5311 5308 5312 5316 5319 5321 5324 5321 5314 5310 5331 5329 5331 5325 5325 5327 5321 5337 5342 5370 5373 5382 5410 5426 5442 5423 5432 5463 5472 5482 5479 5488 5488 5503 5520 5562 5543 5552 5565 5554 5556
5344 5340 5333 5330 5324 5320 5317 5312 5308 5312 5316 5319 5319 5318 5311 5308 5325 5331 5334 5333 5328 5327 5321 5327 5331 5343 5354 5359 5370 5374 5388 5401 5417 5432 5435 5476 5495 5492 5505 5523 5555 5543 5553 5550 5543 5545 5533